Location: Fredericksburg
(30.2750°N, 98.8720°W)
Time: 12:41:27
(UTC-05:00)

Daily predictions for brighter satellites

Satellite Brightness Start Highest point End
(mag) Time Altitude Azimuth Time Altitude Azimuth Time Altitude Azimuth
Cosmos 1092 Rocket 4.2 20:55:13 10° S 21:01:26 79° W 21:07:37 10° N
Cosmos 540 Rocket 4.2 20:59:04 10° N 21:03:48 36° ENE 21:08:30 10° SE
CZ-4B DEB 3.6 21:03:54 10° S 21:07:09 54° W 21:10:25 10° NNW
Cosmos 1656 4.5 21:03:20 10° NNW 21:08:46 53° WSW 21:14:07 10° S
Meteor 2-1 Rocket 4.3 21:06:36 10° N 21:12:09 58° E 21:17:34 10° SSE
FengYun 1-2 T 4.5 21:06:57 10° S 21:12:24 74° WSW 21:17:56 10° NNW
Cosmos 968 Rocket 3.7 21:10:45 10° S 21:15:42 51° ESE 21:20:44 10° NNE
GPS 2-04 Rocket1 3.5 21:14:55 10° WNW 21:19:12 52° NNE 21:23:25 10° E
Cosmos 2026 Rocket 3.9 21:13:18 10° S 21:19:20 77° E 21:25:28 10° N
CZ-2D R/B 3.3 21:15:32 10° SSE 21:19:24 90° ENE 21:23:17 10° NNW
Cosmos 1076 Rocket 3.6 21:15:21 10° S 21:19:35 83° W 21:23:52 10° N
H-2A R/B 2.7 21:15:54 10° SSE 21:19:45 69° ENE 21:23:34 10° N
deb Kosmos-1763 4.1 21:17:50 10° SSW 21:21:41 82° ESE 21:25:36 10° NNE
Cosmos 2360 4.3 21:24:04 10° NNW 21:29:46 66° ENE 21:35:19 11° SSE
Cosmos 1378 3.5 21:27:28 10° SSW 21:31:12 67° W 21:34:56 10° N
CZ-4 DEB 2.7 21:29:46 10° SSE 21:32:57 81° E 21:36:10 10° N
Delta 128 3.7 21:29:12 10° W 21:33:51 61° S 21:37:30 15° ESE
Envisat 4.1 21:30:38 13° SE 21:34:17 28° ENE 21:38:32 10° NNE
H-2A R/B 3.0 21:31:02 13° SE 21:34:30 33° ENE 21:38:33 10° N
Cosmos 1655 Rocket 4.2 21:32:06 10° S 21:38:17 77° W 21:44:31 10° N
ERS-1 Rocket 3.0 21:39:02 11° SSE 21:43:43 63° ENE 21:48:41 10° N
Cosmos 1328 Rocket 4.0 21:40:14 10° N 21:44:30 44° E 21:47:30 18° SSE
GPS 2-12 Rocket1 4.5 21:42:06 10° SW 21:45:25 20° S 21:46:51 17° SSE
S3M 4.1 21:40:54 10° N 21:46:54 58° E 21:52:17 13° SSE
Cosmos 371 Rocket 3.6 21:42:36 10° N 21:47:15 49° ENE 21:50:24 19° SE
SPOT 5 3.9 21:45:54 18° ESE 21:48:10 26° ENE 21:52:00 10° NNE
SWIFT 4.1 21:46:14 10° SW 21:49:01 17° S 21:50:22 15° SSE
ALOS 3.3 21:44:41 10° S 21:49:08 45° W 21:53:36 10° NNW
Cosmos 1777 Rocket 4.0 21:44:24 10° S 21:49:37 65° ESE 21:54:50 10° NNE
Cosmos 2228 Rocket 3.1 21:45:10 10° N 21:49:38 70° E 21:53:23 15° SSE
Cosmos 1743 Rocket 3.7 21:47:17 10° S 21:51:45 81° W 21:56:14 10° N
ASTRO E2 3.8 21:49:14 10° W 21:52:51 32° SSW 21:54:44 21° SSE
USA 186 3.6 21:51:34 10° SSW 21:53:23 20° W 21:55:14 10° NW
Delta 142 4.3 21:52:13 10° W 21:56:49 49° SSW 22:00:13 23° SE
Cosmos 1500 Rocket 3.4 21:54:12 10° S 21:58:31 78° E 22:02:54 10° N
CZ-2C R/B 1.4 22:05:06 34° NW 22:05:06 34° NW 22:06:17 10° NNW
Tiangong 1 3.1 22:01:56 10° SSW 22:02:44 15° SSW 22:02:44 15° SSW
Cosmos 2219 3.8 22:01:48 19° SSE 22:05:05 35° ESE 22:10:14 10° NE
deb Chang Zheng 4 4.1 22:02:03 10° N 22:06:19 59° WNW 22:10:34 10° SSW
NOSS 3-1 (C) 3.9 22:03:43 18° SSE 22:07:04 32° ESE 22:12:24 10° NE
Cosmos 1441 Rocket 3.5 22:03:51 10° SSW 22:07:37 64° W 22:11:22 10° N
PSLV R/B 4.0 22:10:10 34° ENE 22:10:14 34° ENE 22:13:03 10° N
ATLAS CENTAUR R/B 1.7 22:10:54 10° NW 22:15:14 61° WSW 22:17:04 30° S
Delta 2 Rocket 3.5 22:12:13 10° W 22:15:42 53° NNW 22:17:57 18° ENE
Cosmos 1538 Rocket 4.1 22:17:34 10° NNW 22:22:55 82° WSW 22:25:46 29° S
Cosmos 1680 Rocket 4.5 22:19:03 10° N 22:23:40 30° ENE 22:24:52 28° E
AVUM R/B 4.3 22:24:07 27° W 22:24:27 29° WNW 22:26:33 10° N
Cosmos 2322 Rocket 2.3 22:19:31 10° NNW 22:25:07 72° WSW 22:28:11 28° S
Cosmos 1939 Rocket 3.3 22:24:24 27° SSW 22:26:21 56° W 22:30:13 10° NNW
Cosmos 923 Rocket 4.5 22:22:03 10° N 22:27:01 44° ENE 22:28:22 36° ESE
Cosmos 1515 Rocket 3.9 22:27:38 10° NNW 22:32:01 61° W 22:34:05 29° SSW
Cosmos 1908 3.1 22:28:16 10° N 22:32:10 81° E 22:32:46 62° SSE
Cosmos 304 Rocket 4.5 22:27:49 10° N 22:32:16 36° ENE 22:32:54 35° E
Cosmos 1898 Rocket 4.5 22:33:17 28° E 22:33:17 28° E 22:36:58 10° NE
SL-16 R/B 2.5 22:28:51 10° NNW 22:34:27 64° WSW 22:37:16 30° S
Cosmos 1980 Rocket 4.4 22:31:04 10° NW 22:35:00 19° W 22:38:54 10° SW
Cosmos 2360 Rocket 2.7 22:30:39 10° N 22:36:02 44° ENE 22:37:27 37° ESE
CZ-4B R/B 3.4 22:31:40 10° NNE 22:36:57 81° ESE 22:39:32 31° S
Cosmos 2266 Rocket 4.3 22:33:09 10° SSW 22:39:25 68° W 22:45:39 10° N
Cosmos 2315 Rocket 4.1 22:34:31 10° N 22:40:34 54° E 22:42:17 42° SE
Cosmos 1633 Rocket 4.3 22:42:16 27° ENE 22:42:16 27° ENE 22:45:04 10° NNE
Sich 1 4.1 22:42:31 30° ENE 22:42:31 30° ENE 22:45:36 10° NNE
CZ-4 SHROUD 4.1 22:46:44 47° WNW 22:46:44 47° WNW 22:49:29 10° NNW
Cosmos 1674 4.1 22:44:47 21° SW 22:46:47 36° W 22:50:21 10° NNW
Cosmos 2151 3.4 22:46:46 38° SW 22:48:10 59° W 22:52:18 10° N
Cosmos 773 Rocket 3.9 22:44:18 10° NNW 22:49:30 82° WSW 22:50:49 52° S
MetOp-B 4.1 22:47:47 44° S 22:49:31 82° WSW 22:54:54 10° NNW
Terra 3.4 22:51:23 21° ENE 22:51:23 21° ENE 22:54:33 10° NNE
Cosmos 1805 Rocket 3.4 22:54:12 80° SSE 22:54:24 85° E 22:58:52 10° N
Cosmos 2227 Rocket 4.0 22:57:46 16° ENE 22:57:46 16° ENE 22:59:29 10° NE
Cosmos 1437 Rocket 3.9 22:51:57 10° NNW 22:55:27 36° W 22:56:06 33° WSW
Cosmos 1244 Rocket 4.4 22:56:56 44° S 22:59:09 81° E 23:05:27 10° N
GPS 2-04 Rocket1 3.5 22:55:02 10° WNW 22:58:33 47° WSW 22:58:33 47° WSW
Cosmos 1300 3.9 22:57:44 10° N 23:00:11 33° NNE 23:00:11 33° NNE
Cosmos 1151 Rocket 3.7 22:57:34 10° NNW 23:01:42 47° W 23:02:24 42° WSW
OAO 2 Rocket 3.4 22:59:43 10° WSW 23:04:31 67° SSW 23:04:31 67° SSW
Cosmos 2333 Rocket 4.3 23:03:48 10° NNE 23:06:30 13° ENE 23:07:11 13° ENE
CZ-4 R/B 4.0 23:01:47 10° N 23:06:41 70° WNW 23:07:46 52° SW
Cosmos 1375 Rocket 4.5 23:00:52 10° NNW 23:07:26 78° ENE 23:08:43 59° SE
NOSS 3-1 (A) 3.2 23:07:21 47° SSW 23:09:08 83° ESE 23:15:24 10° NNE
Cosmos 1666 Rocket 3.9 23:16:59 64° NNW 23:16:59 64° NNW 23:20:50 10° N
Cosmos 1745 Rocket 4.0 23:17:11 57° E 23:17:16 57° E 23:23:20 10° NNE
COSMOS 2428 3.1 23:13:07 10° N 23:18:35 48° ENE 23:18:35 48° ENE
Cosmos 1707 Rocket 4.0 23:14:19 10° N 23:17:48 57° N 23:17:48 57° N
Cosmos 2058 3.9 23:19:08 40° W 23:19:10 40° W 23:23:02 10° N
YAOGAN 6 4.4 23:20:33 29° WNW 23:20:33 29° WNW 23:23:11 10° NW
SL-08 R/B 4.3 23:19:46 69° SE 23:20:14 73° E 23:26:27 10° N
Cosmos 2297 Rocket 4.1 23:25:45 17° ENE 23:25:45 17° ENE 23:27:27 10° NE
Cosmos 2298 Rocket 4.2 23:22:18 58° WSW 23:23:07 68° WNW 23:28:25 10° N
DELTA 2 R/B (1) 4.2 23:20:25 10° NW 23:25:47 49° NNE 23:26:42 44° NE
Cosmos 2112 Rocket 4.1 23:23:04 10° NNW 23:28:09 69° W 23:28:09 69° W
ATLAS 2AS CENTAUR R/B 3.4 23:32:40 43° E 23:32:40 43° E 23:38:55 10° NE
Meteor 2-11 Rocket 4.3 23:26:08 10° N 23:32:17 79° W 23:32:50 72° SW
Cosmos 1937 Rocket 3.8 23:36:52 63° N 23:36:52 63° N 23:41:13 10° NNE
ARGOS 3.7 23:37:20 47° WSW 23:37:37 48° W 23:42:49 10° NNW
Cosmos 2219 Rocket 3.3 23:33:59 10° N 23:38:24 33° NE 23:38:24 33° NE
Cosmos 2237 4.2 23:34:33 10° NNW 23:39:52 76° N 23:39:52 76° N
H-2A R/B 2.3 23:41:19 70° N 23:41:19 70° N 23:46:05 10° NNW
